Retour au catalogue

XINGWANG JISHU SW 10-04

ActifScienceVLEO
NORAD 69323·PAYLOAD·🇨🇳 China
Ce nom de satellite n'a pas encore été confirmé par des sources officielles.

Lancé May 30, 2026 depuis Xichang Satellite Launch Center

Loading…

Prochains Passages (prochaines 24 heures)

TLE

FraisSource: Space-Track

Époque: Sep 14, 2026, 13:10 UTC

1 69323U 26120D   26257.54923324  .00003601  00000-0  18284-3 0  9994
2 69323  55.0086 350.4815 0011166 183.0460 177.0493 15.19374428 16374

Suivez XINGWANG JISHU SW 10-04 en temps réel avec AllMySat

Download on the App Store